This is the latest recevied weather packets stored in our database for station/object NZ3C. If no packets are shown the sender has not sent any weather packets the latest 1 day(s).
| Time | Temp. | Humidity | Pressure | Rain* | Wind** | Luminosity | Snow |
|---|---|---|---|---|---|---|---|
| 1778007586 | 27.22° C | 42% | 1017.7 hPa | 0 mm | 1.79 m/s, 121° | 278 W/m² | - |
| 1778007284 | 27.22° C | 40% | 1017.8 hPa | 0 mm | 1.34 m/s, 92° | 506 W/m² | - |
| 1778006980 | 27.22° C | 41% | 1017.7 hPa | 0 mm | 1.79 m/s, 296° | 753 W/m² | - |
| 1778006677 | 27.78° C | 42% | 1017.9 hPa | 0 mm | 1.34 m/s, 237° | 547 W/m² | - |
| 1778006373 | 27.22° C | 40% | 1018 hPa | 0 mm | 2.68 m/s, 105° | 900 W/m² | - |
| 1778006070 | 27.78° C | 41% | 1018 hPa | 0 mm | 0.89 m/s, 102° | 809 W/m² | - |
| 1778005767 | 27.78° C | 41% | 1018.1 hPa | 0 mm | 0.89 m/s, 284° | 962 W/m² | - |
| 1778005464 | 27.78° C | 38% | 1018 hPa | 0 mm | 0.89 m/s, 256° | 932 W/m² | - |
| 1778005160 | 28.33° C | 38% | 1018.1 hPa | 0 mm | 0.89 m/s, 261° | 911 W/m² | - |
| 1778004858 | 27.22° C | 41% | 1018.1 hPa | 0 mm | 0.89 m/s, 288° | 952 W/m² | - |
| 1778004554 | 27.22° C | 41% | 1018.4 hPa | 0 mm | 1.79 m/s, 120° | 913 W/m² | - |
| 1778004251 | 27.78° C | 40% | 1018.2 hPa | 0 mm | 0.89 m/s, 287° | 834 W/m² | - |
| 1778003948 | 27.78° C | 40% | 1018.1 hPa | 0 mm | 0.89 m/s, 86° | 938 W/m² | - |
| 1778003644 | 27.78° C | 40% | 1018.1 hPa | 0 mm | 1.34 m/s, 342° | 906 W/m² | - |
| 1778003340 | 27.78° C | 39% | 1018.2 hPa | 0 mm | 0.89 m/s, 152° | 232 W/m² | - |
| 1778003038 | 27.78° C | 39% | 1018.3 hPa | 0 mm | 1.79 m/s, 207° | 939 W/m² | - |
| 1778002734 | 27.22° C | 42% | 1018 hPa | 0 mm | 0.89 m/s, 83° | 902 W/m² | - |
| 1778002430 | 27.22° C | 42% | 1018.3 hPa | 0 mm | 0.89 m/s, 79° | 901 W/m² | - |
| 1778002127 | 26.67° C | 43% | 1018.6 hPa | 0 mm | 0.45 m/s, 148° | 941 W/m² | - |
| 1778001825 | 27.22° C | 43% | 1018.3 hPa | 0 mm | 0 m/s | 926 W/m² | - |
| 1778001525 | 27.22° C | 43% | 1018.3 hPa | 0 mm | 0.89 m/s, 243° | 942 W/m² | - |
| 1778001222 | 26.67° C | 42% | 1018.4 hPa | 0 mm | 0.89 m/s, 237° | 910 W/m² | - |
| 1778000918 | 26.11° C | 46% | 1018.4 hPa | 0 mm | 1.79 m/s, 37° | 899 W/m² | - |
| 1778000615 | 27.22° C | 43% | 1018.5 hPa | 0 mm | 2.24 m/s, 102° | 885 W/m² | - |
| 1778000311 | 27.22° C | 44% | 1018.5 hPa | 0 mm | 0.89 m/s, 253° | 874 W/m² | - |
* Rain latest hour (hover to see other rain measurements)
** Current wind speed in m/s (hover to see current wind gust speed)